When you browse on this site, cookies collect data to enhance your experience and personalize the content and advertising you see.
Visit our Privacy Policy to learn more. By continuing to use the site, you agree to this use of cookies and data.
  • In Romania
  • List of Countries
  • For 7 days
  • Water Temperature
  • Weather Map
  • Weather Widgets
  • user-avatar
    Login

    Hourly Weather Satif

    Today, 31 May, Sunday

    Time Temperature Precipitation Wind Pressure Humidity
    00:00 +14°C° 0 mm 1 mps 671 mmHg 69%
    01:00 +14°C° 0 mm 1 mps 671 mmHg 69%
    02:00 +13°C° 0 mm 1 mps 671 mmHg 69%
    03:00 +13°C° 0 mm 1 mps 670 mmHg 70%
    04:00 +14°C° 0 mm 1 mps 670 mmHg 66%
    05:00 +15°C° 0 mm 1 mps 670 mmHg 61%
    06:00 +16°C° 0 mm 1 mps 671 mmHg 56%
    07:00 +18°C° 0 mm 1 mps 671 mmHg 50%
    08:00 +20°C° 0 mm 1 mps 672 mmHg 43%
    09:00 +22°C° 0 mm 1 mps 673 mmHg 37%
    10:00 +23°C° 0 mm 2 mps 673 mmHg 35%
    11:00 +24°C° 0 mm 3 mps 673 mmHg 34%
    12:00 +26°C° 0 mm 4 mps 673 mmHg 34%
    13:00 +26°C° 0 mm 4 mps 673 mmHg 35%
    14:00 +26°C° 0 mm 5 mps 673 mmHg 36%
    15:00 +27°C° 0 mm 5 mps 673 mmHg 37%
    16:00 +26°C° 0 mm 5 mps 672 mmHg 42%
    17:00 +25°C° 0 mm 4 mps 672 mmHg 46%
    18:00 +24°C° 0 mm 3 mps 671 mmHg 50%
    19:00 +22°C° 0 mm 3 mps 671 mmHg 53%
    20:00 +21°C° 0 mm 2 mps 671 mmHg 56%
    21:00 +20°C° 0 mm 2 mps 671 mmHg 59%
    22:00 +21°C° 0 mm 1 mps 671 mmHg 62%
    23:00 +20°C° 0 mm 1 mps 670 mmHg 64%

    Tomorrow, 1 June, Monday

    Time Temperature Precipitation Wind Pressure Humidity
    00:00 +20°C° 0 mm 1 mps 670 mmHg 66%
    01:00 +19°C° 0 mm 1 mps 670 mmHg 67%
    02:00 +19°C° 0 mm 1 mps 670 mmHg 68%
    03:00 +18°C° 0 mm 1 mps 670 mmHg 68%
    04:00 +19°C° 0 mm 1 mps 670 mmHg 65%
    05:00 +20°C° 0 mm 1 mps 670 mmHg 61%
    06:00 +21°C° 0 mm 1 mps 671 mmHg 58%
    07:00 +22°C° 0 mm 1 mps 671 mmHg 54%
    08:00 +24°C° 0 mm 2 mps 672 mmHg 50%
    09:00 +25°C° 0 mm 3 mps 673 mmHg 46%
    10:00 +26°C° 0 mm 3 mps 673 mmHg 44%
    11:00 +27°C° 0 mm 3 mps 673 mmHg 42%
    12:00 +28°C° 0 mm 3 mps 673 mmHg 40%
    13:00 +28°C° 0 mm 4 mps 673 mmHg 39%
    14:00 +28°C° 0 mm 4 mps 673 mmHg 38%
    15:00 +28°C° 0 mm 4 mps 673 mmHg 38%
    16:00 +27°C° 0 mm 4 mps 672 mmHg 42%
    17:00 +26°C° 0 mm 4 mps 672 mmHg 47%
    18:00 +25°C° 0 mm 4 mps 672 mmHg 52%
    19:00 +24°C° 0 mm 3 mps 672 mmHg 56%
    20:00 +21°C° 0 mm 2 mps 672 mmHg 61%
    21:00 +21°C° 0 mm 1 mps 673 mmHg 65%
    22:00 +21°C° 0 mm 1 mps 672 mmHg 67%
    23:00 +20°C° 0 mm 1 mps 672 mmHg 69%

    Day after tomorrow, 2 June, Tuesday

    Time Temperature Precipitation Wind Pressure Humidity
    00:00 +19°C° 0 mm 1 mps 672 mmHg 71%
    01:00 +19°C° 0 mm 1 mps 671 mmHg 72%
    02:00 +19°C° 0 mm 1 mps 671 mmHg 73%
    03:00 +19°C° 0 mm 1 mps 671 mmHg 75%
    04:00 +19°C° 0 mm 1 mps 671 mmHg 72%
    05:00 +20°C° 0 mm 1 mps 672 mmHg 69%
    06:00 +21°C° 0 mm 1 mps 672 mmHg 66%
    07:00 +22°C° 0 mm 1 mps 673 mmHg 60%
    08:00 +24°C° 0 mm 2 mps 673 mmHg 53%
    09:00 +26°C° 0 mm 2 mps 674 mmHg 46%
    10:00 +27°C° 0 mm 3 mps 674 mmHg 41%
    11:00 +28°C° 0 mm 4 mps 674 mmHg 35%
    12:00 +29°C° 0 mm 5 mps 674 mmHg 29%
    13:00 +29°C° 0 mm 5 mps 673 mmHg 28%
    14:00 +30°C° 0 mm 5 mps 673 mmHg 27%
    15:00 +30°C° 0 mm 5 mps 673 mmHg 26%
    16:00 +29°C° 0 mm 5 mps 673 mmHg 31%
    17:00 +27°C° 0 mm 4 mps 672 mmHg 35%
    18:00 +26°C° 0 mm 3 mps 672 mmHg 39%
    19:00 +25°C° 0 mm 3 mps 671 mmHg 44%
    20:00 +23°C° 0 mm 2 mps 671 mmHg 48%
    21:00 +22°C° 0 mm 1 mps 671 mmHg 53%
    22:00 +21°C° 0 mm 1 mps 671 mmHg 54%
    23:00 +21°C° 0 mm 1 mps 670 mmHg 55%

    3 June, Wednesday

    Time Temperature Precipitation Wind Pressure Humidity
    00:00 +20°C° 0 mm 1 mps 670 mmHg 55%
    01:00 +20°C° 0 mm 1 mps 670 mmHg 57%
    02:00 +18°C° 0 mm 0 mps 669 mmHg 59%
    03:00 +17°C° 0 mm 0 mps 669 mmHg 61%
    04:00 +18°C° 0 mm 0 mps 669 mmHg 57%
    05:00 +19°C° 0 mm 0 mps 670 mmHg 53%
    06:00 +20°C° 0 mm 0 mps 670 mmHg 49%
    07:00 +24°C° 0 mm 1 mps 670 mmHg 44%
    08:00 +25°C° 0 mm 1 mps 671 mmHg 38%
    09:00 +27°C° 0 mm 1 mps 671 mmHg 33%
    10:00 +28°C° 0 mm 2 mps 671 mmHg 30%
    11:00 +29°C° 0 mm 3 mps 671 mmHg 26%
    12:00 +30°C° 0 mm 3 mps 671 mmHg 23%
    13:00 +30°C° 0 mm 4 mps 671 mmHg 22%
    14:00 +30°C° 0 mm 4 mps 671 mmHg 21%
    15:00 +32°C° 0 mm 4 mps 671 mmHg 21%
    16:00 +30°C° 0 mm 4 mps 670 mmHg 24%
    17:00 +29°C° 0 mm 3 mps 670 mmHg 28%
    18:00 +28°C° 0 mm 3 mps 670 mmHg 31%
    19:00 +26°C° 0 mm 2 mps 670 mmHg 37%
    20:00 +25°C° 0 mm 1 mps 670 mmHg 42%
    21:00 +21°C° 0 mm 0 mps 670 mmHg 48%
    22:00 +23°C° 0 mm 1 mps 669 mmHg 48%
    23:00 +23°C° 0 mm 1 mps 669 mmHg 47%

    4 June, Thursday

    Time Temperature Precipitation Wind Pressure Humidity
    00:00 +22°C° 0 mm 1 mps 669 mmHg 46%
    01:00 +22°C° 0 mm 1 mps 668 mmHg 49%
    02:00 +22°C° 0 mm 1 mps 668 mmHg 51%
    03:00 +21°C° 0 mm 1 mps 668 mmHg 53%
    04:00 +22°C° 0 mm 1 mps 668 mmHg 51%
    05:00 +23°C° 0 mm 2 mps 669 mmHg 49%
    06:00 +24°C° 0 mm 2 mps 669 mmHg 46%
    07:00 +26°C° 0 mm 4 mps 669 mmHg 42%
    08:00 +27°C° 0 mm 5 mps 670 mmHg 37%
    09:00 +29°C° 0 mm 6 mps 670 mmHg 32%
    10:00 +30°C° 0 mm 7 mps 670 mmHg 29%
    11:00 +32°C° 0 mm 8 mps 670 mmHg 27%
    12:00 +33°C° 0 mm 9 mps 671 mmHg 24%
    13:00 +33°C° 0 mm 9 mps 670 mmHg 24%
    14:00 +33°C° 0 mm 8 mps 670 mmHg 24%
    15:00 +33°C° 0 mm 8 mps 669 mmHg 24%
    16:00 +32°C° 0 mm 7 mps 669 mmHg 26%
    17:00 +30°C° 0 mm 6 mps 669 mmHg 29%
    18:00 +29°C° 0 mm 4 mps 669 mmHg 32%
    19:00 +26°C° 0 mm 4 mps 668 mmHg 36%
    20:00 +22°C° 0 mm 4 mps 668 mmHg 40%
    21:00 +20°C° 0 mm 4 mps 668 mmHg 44%
    22:00 +19°C° 0 mm 3 mps 668 mmHg 43%
    23:00 +19°C° 0 mm 2 mps 668 mmHg 42%

    5 June, Friday

    Time Temperature Precipitation Wind Pressure Humidity
    00:00 +19°C° 0 mm 2 mps 668 mmHg 40%
    01:00 +20°C° 0 mm 1 mps 668 mmHg 42%
    02:00 +19°C° 0 mm 1 mps 668 mmHg 43%
    03:00 +19°C° 0 mm 1 mps 668 mmHg 44%
    04:00 +19°C° 0 mm 1 mps 668 mmHg 42%
    05:00 +20°C° 0 mm 1 mps 668 mmHg 39%
    06:00 +21°C° 0 mm 1 mps 669 mmHg 37%
    07:00 +22°C° 0 mm 1 mps 669 mmHg 35%
    08:00 +24°C° 0 mm 1 mps 670 mmHg 32%
    09:00 +26°C° 0 mm 1 mps 670 mmHg 30%
    10:00 +27°C° 0 mm 1 mps 670 mmHg 28%
    11:00 +28°C° 0 mm 1 mps 671 mmHg 27%
    12:00 +29°C° 0 mm 2 mps 671 mmHg 25%
    13:00 +30°C° 0 mm 3 mps 671 mmHg 25%
    14:00 +30°C° 0 mm 4 mps 671 mmHg 25%
    15:00 +32°C° 0 mm 5 mps 671 mmHg 25%
    16:00 +28°C° 0 mm 5 mps 670 mmHg 32%
    17:00 +26°C° 0 mm 5 mps 670 mmHg 38%
    18:00 +23°C° 0 mm 5 mps 669 mmHg 45%
    19:00 +22°C° 0 mm 4 mps 669 mmHg 49%
    20:00 +20°C° 0 mm 3 mps 670 mmHg 53%
    21:00 +19°C° 0 mm 2 mps 670 mmHg 57%
    22:00 +19°C° 0 mm 2 mps 670 mmHg 57%
    23:00 +20°C° 0 mm 1 mps 670 mmHg 57%
    Show more